This is the latest recevied weather packets stored in our database for station/object EA1IOK-13. If no packets are shown the sender has not sent any weather packets the latest 10 day(s).
| Time | Temp. | Humidity | Pressure | Rain* | Wind** | Luminosity | Snow |
|---|---|---|---|---|---|---|---|
| 1777607371 | 12.78° C | 93% | 1018.7 hPa | 0 mm | - | - | - |
| 1777606471 | 12.22° C | 93% | 1018.7 hPa | 0 mm | - | - | - |
| 1777605572 | 12.78° C | 93% | 1018.7 hPa | 0 mm | - | - | - |
| 1777604670 | 12.78° C | 93% | 1018.7 hPa | 0 mm | - | - | - |
| 1777603770 | 12.78° C | 92% | 1018.6 hPa | 0 mm | - | - | - |
| 1777602871 | 12.78° C | 92% | 1018.7 hPa | 0 mm | - | - | - |
| 1777601972 | 12.78° C | 92% | 1018.8 hPa | 0 mm | - | - | - |
| 1777601070 | 12.78° C | 92% | 1018.9 hPa | 0 mm | - | - | - |
| 1777600170 | 12.78° C | 92% | 1018.9 hPa | 0 mm | - | - | - |
| 1777599270 | 12.78° C | 92% | 1019.1 hPa | 0 mm | - | - | - |
| 1777597471 | 12.78° C | 92% | 1019.1 hPa | 0 mm | - | - | - |
| 1777595670 | 13.33° C | 91% | 1019.2 hPa | 0 mm | - | - | - |
| 1777594771 | 13.33° C | 90% | 1019.2 hPa | 0 mm | - | - | - |
| 1777593872 | 13.33° C | 90% | 1019.3 hPa | 0 mm | - | - | - |
| 1777592972 | 13.33° C | 90% | 1019.2 hPa | 0 mm | - | - | - |
| 1777592070 | 13.33° C | 90% | 1019.2 hPa | 0 mm | - | - | - |
| 1777591169 | 13.89° C | 89% | 1019.2 hPa | 0 mm | - | - | - |
| 1777590272 | 13.89° C | 89% | 1019.3 hPa | 0 mm | - | - | - |
| 1777588471 | 14.44° C | 88% | 1019.2 hPa | 0 mm | - | - | - |
| 1777587571 | 14.44° C | 87% | 1019.1 hPa | 0 mm | - | - | - |
| 1777586671 | 14.44° C | 88% | 1019.1 hPa | 0 mm | - | - | - |
| 1777585771 | 14.44° C | 88% | 1019 hPa | 0 mm | - | - | - |
| 1777584870 | 14.44° C | 88% | 1019 hPa | 0 mm | - | - | - |
| 1777583971 | 14.44° C | 87% | 1019 hPa | 0 mm | - | - | - |
| 1777583070 | 14.44° C | 88% | 1018.8 hPa | 0 mm | - | - | - |
* Rain latest hour (hover to see other rain measurements)
** Current wind speed in m/s (hover to see current wind gust speed)